Weather Roundup
Issued by NWS

Home | Current Version | Previous Version | Graphics & Text | Print | Product List | Glossary Off
Versions: 1 2 3 4 5 6 7 8 9 10 11 12 13 14 15 16 17 18 19 20 21 22 23 24 25 26 27 28 29 30 31 32 33 34 35 36 37 38 39 40 41 42 43 44 45 46 47 48 49 50

000
NZUS93 KARX 270259
HRRWXR

CURRENT HOURLY OBSERVATIONS ACROSS
MUCH OF THE UPPER MISSISSIPPI VALLEY
NATIONAL WEATHER SERVICE LA CROSSE WI
1000 PM CDT FRI AUG 26 2016


...SOUTHEAST MINNESOTA...


CITY           SKY/WX    TMP DP  RH WIND       PRES   REMARKS
ROCHESTER      CLOUDY    63  60  90 SE5       30.15S
ROCHESTER/MAYO FAIR      65  59  80 E5        30.15S
WINONA         CLOUDY    64  59  82 CALM      30.15R
AUSTIN         CLOUDY    63  59  88 CALM      30.13F
ALBERT LEA     CLOUDY    63  57  82 CALM      30.13F
DODGE CENTER   CLOUDY    63  57  82 CALM      30.14F
PRESTON        DRIZZLE   63  59  86 CALM      30.16S
OWATONNA       CLOUDY    64  59  82 CALM      30.14S
FARIBAULT      CLOUDY    63  61  94 CALM      30.14S
$$

...ELSEWHERE IN MINNESOTA...


CITY           SKY/WX    TMP DP  RH WIND       PRES   REMARKS
MINNEAPOLIS    CLOUDY    66  56  70 SE5       30.13S
INTNL FALLS    PTCLDY    53  49  86 CALM      30.05S
DULUTH         CLOUDY    61  55  81 S7        30.11S
RED WING       CLOUDY    63  57  82 CALM      30.13R
REDWOOD FALLS  CLOUDY    63  56  78 SE8       30.09F
MANKATO        CLOUDY    63  57  82 E6        30.13S
WORTHINGTON    CLOUDY    61  59  93 E6        30.12R
FAIRMONT       CLOUDY    63  60  90 E6        30.12S
$$

...SOUTHWEST WISCONSIN...


CITY           SKY/WX    TMP DP  RH WIND       PRES   REMARKS
LA CROSSE      LGT RAIN  68  62  81 E3        30.14R
PRAIRIE DU CHI DRIZZLE   64  62  93 CALM      30.13F
BOSCOBEL       LGT RAIN  65  64  97 NE3       30.14S
LONE ROCK      NOT AVBL
PLATTEVILLE    CLOUDY    66  65  94 NE6       30.14F
FORT MC COY    CLOUDY    63  61  93 E3        30.17R
MAUSTON-NEW LI CLOUDY    64  61  90 CALM      30.16R
VIROQUA        CLOUDY    63  61  93 NW3       30.16F
WIS DELLS      NOT AVBL
$$

...ELSEWHERE IN WISCONSIN...


CITY           SKY/WX    TMP DP  RH WIND       PRES   REMARKS
MILWAUKEE      CLOUDY    69  59  70 NE6       30.15F
MADISON        MOCLDY    66  59  78 NE6       30.14F
GREEN BAY      CLOUDY    62  62 100 CALM      30.16R
EAU CLAIRE     NOT AVBL
BLACK RVR FLS  FAIR      62  62 100 CALM      30.16R
MEDFORD        CLOUDY    55  55 100 CALM      30.16S
WAUSAU         MOCLDY    63  57  81 CALM      30.16R
WIS RAPIDS     CLOUDY    61  59  93 CALM      30.18R
MARSHFIELD     CLOUDY    62  57  83 CALM      30.16R
RICE LAKE      PTCLDY    59  56  89 CALM      30.16S
$$

...NORTHEAST IOWA...


CITY           SKY/WX    TMP DP  RH WIND       PRES   REMARKS
WATERLOO       CLOUDY    62  58  86 N8        30.12R
DUBUQUE        CLOUDY    66  61  84 NE9       30.13F
DECORAH        CLOUDY    63  63 100 CALM      30.14S
MASON CITY     CLOUDY    63  61  93 CALM      30.14S
CHARLES CITY   CLOUDY    64  64 100 E7        30.13F
OELWEIN        CLOUDY    63  61  94 NE6       30.13F
$$

...ELSEWHERE IN IOWA...


CITY           SKY/WX    TMP DP  RH WIND       PRES   REMARKS
DES MOINES     LGT RAIN  67  64  90 E9        30.07S
IOWA CITY      CLOUDY    71  63  75 NE8       30.09F
FORT DODGE     CLOUDY    63  55  77 E7        30.12S
MARSHALLTOWN   LGT RAIN  61  60  97 NE12      30.10F
CEDAR RAPIDS   CLOUDY    68  64  87 NE8       30.08F
$$

...NORTHERN ILLINOIS...


CITY           SKY/WX    TMP DP  RH WIND       PRES   REMARKS
CHICAGO-OHARE  MOCLDY    71  63  75 NE10      30.12F
CHICAGO-MIDWAY LGT RAIN  74  64  71 E12       30.12F
MOLINE         CLOUDY    73  64  73 E9        30.07F
ROCKFORD       MOCLDY    71  63  75 NE7       30.13F
PEORIA         CLOUDY    74  73  97 E7        30.06F
$$

NOTE: "FAIR" INDICATES FEW OR NO CLOUDS BELOW 12,000 FEET WITH NO
SIGNIFICANT WEATHER AND/OR OBSTRUCTIONS TO VISIBILITY. WIND
SPEEDS ARE IN MILES-PER-HOUR.




USA.gov is the U.S. government's official web portal to all federal, state and local government web resources and services.